Location: Copeville
(33.0796°N, 96.4155°W)
Time: 00:30:45
(UTC+00:00)

Oscar 11 - Visible Passes

Search period start: 31 March 2023 00:00
Search period end: 10 April 2023 00:00
Orbit: 608 x 622 km, 97.7° (Epoch: 29 March)

Date Brightness Start Highest point End Pass type
(mag) Time Alt. Az. Time Alt. Az. Time Alt. Az.
31 Mar 7.1 10:42:47 10° NNE 10:47:04 76° ESE 10:51:20 10° S visible
01 Apr 6.9 10:58:28 10° N 11:02:43 68° WNW 11:06:58 10° SSW visible
02 Apr 10.0 09:40:26 10° ENE 09:42:09 12° E 09:43:52 10° ESE visible
02 Apr 7.4 11:14:17 10° N 11:18:19 43° WNW 11:22:22 10° SW visible
03 Apr 9.6 09:54:52 10° NE 09:57:55 19° E 10:00:58 10° SE visible
03 Apr 8.0 11:30:15 10° NNW 11:33:54 28° WNW 11:37:33 10° SW visible
04 Apr 8.9 10:09:55 10° NE 10:13:39 29° E 10:17:22 10° SSE visible
05 Apr 8.1 10:25:13 10° NNE 10:29:20 45° E 10:33:27 10° S visible
06 Apr 7.2 10:40:43 10° NNE 10:44:59 73° E 10:49:16 10° S visible
07 Apr 7.0 10:56:20 10° N 11:00:36 71° WNW 11:04:52 10° SSW visible
08 Apr 10.0 09:38:28 10° ENE 09:40:00 12° E 09:41:30 10° ESE visible
08 Apr 7.4 11:12:06 10° N 11:16:11 45° WNW 11:20:16 10° SSW visible
09 Apr 9.6 09:52:45 10° NE 09:55:43 18° E 09:58:41 10° SE visible
09 Apr 8.0 11:28:00 10° NNW 11:31:43 29° WNW 11:35:26 10° SW visible
